OPS 4682 DEB, 51488

Orbit data source: Space-Track

OPS 4682 DEB, 51488 is space debris in LEO originally from a launch on Sat, 03 Apr 1965 UTC launched from the Air Force Western Test Range (AFWTR). Debris objects in space refer to the collection of defunct objects orbiting the Earth. Examples of debris include non-operational satellites, rocket bodies, and fragments generated from explosions, collisions, or faulty payload assembly.

Loading next visibility...
Identifier
51488, 1965-027FY
Orbit
LEO
Country
Flag of USUS
Related business
Manufacturer
Unknown
Mission
Spacecraft
Bus & Motor
Unknown
Mass
Unknown
Launch date (UTC)
1965-04-03 (61 years ago)
Launch vehicle
Unknown
Launch site
Air Force Western Test Range (AFWTR)
Object type
Payload
Rocket body
Debris
Shape & HBR
Unknown
Radar Cross Section
Small (<0.1 m²)

Expand to show TLE details & history
Last TLE update: 1 week ago

TLE from 1 week ago
0 OPS 4682 DEB
1 51488U 65027FY  26200.64516975  .00001045  00000-0  33753-2 0  9992
2 51488  90.2492 351.9130 0020855 160.7498 199.4417 13.01467471547578
Epoch: 2026-07-19T15:29Z
TLE epoch observation values (Epoch: 2026-07-19T15:29:02.666Z)
Latitude
-0.00005°
Longitude
-177.7887°
Altitude
1,274.249 km
Speed
7.211 km/s
True Right ascension
23h 27m 39s
True Declination
0° 00' 00"
Sunlit
Object was in full shadow at epoch
Visualization orbit readout
Latitude
Unknown
Longitude
Unknown
Altitude
Unknown
Speed
Unknown
Apparent Right ascension
Unknown
Apparent Declination
Unknown
Sunlit
N/A
Visualization observer readout
Local Sidereal Time
18:07:00
Azimuth
Unknown
Elevation
Unknown
Doppler factor
Unknown
Orbital elements
Apogee altitude
1,269.383 km
Perigee altitude
1,237.552 km
Semi-major axis
7,631.604 km
Eccentricity
0.00209
Inclination
90.2492°
RAAN
351.913°
Arg. of periapsis
160.7498°
True anomaly
199.36235°
Mean anomaly
199.4417°
Eccentric anomaly
199.40201°
Mean motion
3.25551 °/min
Orbital period
110.58 mins
BSTAR
0.0033753
Loading maneuver chart data...
Computing Atmospheric mass density...
Loading historical data...
Loading historical data...
Loading historical data...
Loading historical data...
Loading historical data...
Loading historical data...
Loading historical data...

Documentation

Showing up to 5 results
|